This demonstration page uses our WeatherBlox Daily Observations layout. Learn more.

41.55636, -103.73856

Hourly Observations for January 13, 2020

Temp ( °F °C ) Dew Point ( °F °C ) Humidity (%) Winds ( mph kmh ) Pressure ( in mb ) Visibility ( mi km ) Precip ( " mm )
12:58 am 00:58 Mostly Cloudy 28 -2.2 14 -9.9 56 56 SSW 5 7 29.98 1015 10 16.0934 0 0
1:58 am 01:58 Cloudy 31 -0.3 12 -11 45 45 W 6 9 29.96 1015 10 16.0934 0 0
2:58 am 02:58 Mostly Cloudy 29 -1.6 16 -8.7 59 59 W 9 15 29.96 1015 10 16.0934 0 0
3:58 am 03:58 Mostly Cloudy 27 -3 16 -9.1 63 63 Calm 29.97 1015 10 16.0934 0 0
4:58 am 04:58 Mostly Cloudy 27 -2.9 15 -9.3 62 62 WSW 7 11 29.97 1015 10 16.0934 0 0
5:58 am 05:58 Clear 26 -3.6 13 -10.4 60 60 WSW 8 13 29.96 1015 10 16.0934 0 0
6:58 am 06:58 Clear 26 -3.5 13 -10.3 60 60 W 12 19 29.93 1013 10 16.0934 0 0
7:58 am 07:58 Clear 26 -3.2 13 -10.8 56 56 Calm 29.91 1013 10 16.0934 0 0
8:58 am 08:58 Clear 22 -5.8 12 -10.9 68 68 SW 8 13 29.96 1015 10 16.0934 0 0
9:58 am 09:58 Clear 24 -4.7 12 -10.9 62 62 W 5 7 29.94 1014 10 16.0934 0 0
10:58 am 10:58 Clear 22 -5.7 12 -11.3 65 65 SW 5 7 29.94 1014 10 16.0934 0 0
11:58 am 11:58 Mostly Cloudy 20 -6.4 12 -11.3 69 69 Calm 29.93 1014 10 16.0934 0 0
12:58 pm 12:58 Mostly Cloudy 21 -6.1 11 -11.4 66 66 E 7 11 29.93 1014 10 16.0934 0 0
1:58 pm 13:58 Mostly Cloudy 23 -5 11 -11.5 61 61 Calm 29.91 1013 10 16.0934 0 0
2:58 pm 14:58 Mostly Cloudy 26 -3.6 11 -11.5 55 55 SSW 8 13 29.91 1013 10 16.0934 0 0
3:58 pm 15:58 Mostly Cloudy 26 -3.1 13 -10.5 57 57 SSW 13 20 29.92 1013 10 16.0934 0 0
4:58 pm 16:58 Mostly Cloudy 32 0.2 14 -10.2 46 46 SW 14 22 29.9 1012 10 16.0934 0 0
5:58 pm 17:58 Sunny 38 3.3 12 -11.3 34 34 SSW 22 35 29.85 1011 10 16.0934 0 0
7:58 pm 19:58 Sunny 42 5.6 10 -12.3 27 27 SW 22 35 29.81 1010 10 16.0934 0 0
8:58 pm 20:58 Sunny 43 6.2 11 -11.4 27 27 WSW 23 37 29.83 1010 10 16.0934 0 0
9:58 pm 21:58 Sunny 43 6 10 -12.3 26 26 W 23 37 29.84 1011 10 16.0934 0 0
11:58 pm 23:58 Clear 34 1.2 12 -11.3 39 39 WNW 21 33 29.96 1015 10 16.0934 0 0

Powered by AerisWeather